Flag for China Weather past 2 weeks in Kunming, Yunnan, China

Now
57 °F

Fog.


Feels Like: 57 °F
Forecast: 60 / 75 °F
Wind: No wind

Location: Kunming Airport

Current Time: Aug 21, 2014 at 8:43:19 AM

Latest Report: Aug 21, 2014 at 8:00 AM


Visibility: 2 mi

Pressure: 30.15 "Hg

Humidity: 100%

Dew point: 57 °F

Location of KunmingLocation

Historic Weather in Kunming — Graph

°F

Kunming temperature yesterday

Maximum temperature yesterday: 73 °F (at 3:00 PM)
Minimum temperature yesterday: 54 °F (at 6:00 AM)
Average temperature yesterday: 63 °F

Past Weeks' High & Low Weather Summary

 TemperatureHumidityPressure
High81 °F (Aug 7, 3:00 PM)100% (Aug 6, 7:00 AM)30.27 "Hg (Aug 6, 7:00 AM)
Low54 °F (Aug 20, 6:00 AM)48% (Aug 7, 3:00 PM)29.89 "Hg (Aug 11, 5:00 PM)
Average66 °F85%30.07 "Hg
* Reported Aug 6 7:00 AM — Aug 21 7:00 AM, Kunming, Weather by CustomWeather, © 2014

Note: Actual official high and low records may vary slightly from our data, if they occured in-between our weather recording intervals... More about our weather records

Advertising

Kunming weather history for previous 24 hours

 ConditionsComfort  
Time TempWeatherWind HumidityBarometerVisibility
7:00 AM
Aug 21
54 °FFog.1 mph100%30.15 "Hg2 mi
6:00 AM55 °FFog.No wind100%30.12 "Hg3 mi
5:00 AM57 °FPassing clouds.3 mph94%30.15 "HgN/A
4:00 AM59 °FPassing clouds.6 mph88%30.15 "HgN/A
3:00 AM59 °FPassing clouds.8 mph88%30.18 "HgN/A
2:00 AM61 °FPassing clouds.8 mph83%30.18 "HgN/A
1:00 AM63 °FPassing clouds.8 mph73%30.18 "HgN/A
12:00 AM63 °FClear.6 mph73%30.18 "Hg10 mi
11:00 PM
Aug 20
63 °FPassing clouds.6 mph77%30.18 "HgN/A
10:00 PM63 °FPassing clouds.3 mph83%30.15 "HgN/A
9:00 PM64 °FClear.6 mph73%30.12 "Hg10 mi
8:00 PM64 °FClear.3 mph73%30.12 "Hg10 mi
7:00 PM68 °FSunny.8 mph60%30.09 "Hg10 mi
6:00 PM70 °FScattered clouds.3 mph57%30.12 "HgN/A
5:00 PM73 °FScattered clouds.6 mph50%30.12 "HgN/A
4:00 PM73 °FScattered clouds.1 mph50%30.15 "HgN/A
3:00 PM73 °FScattered clouds.1 mph57%30.18 "HgN/A
2:00 PM70 °FScattered clouds.3 mph57%30.21 "HgN/A
1:00 PM68 °FScattered clouds.6 mph64%30.21 "HgN/A
12:00 PM66 °FScattered clouds.3 mph64%30.24 "HgN/A
11:00 AM64 °FScattered clouds.8 mph73%30.27 "HgN/A
10:00 AM63 °FScattered clouds.8 mph94%30.24 "HgN/A
9:00 AM61 °FFog.8 mph100%30.24 "Hg3 mi
8:00 AM57 °FFog.1 mph100%30.21 "Hg2 mi
Weather by CustomWeather, © 2014

See weather overviewHow to use our weather pages